Regional Weather Roundup
Issued by NWS

Home | Current Version | Previous Version | Graphics & Text | Print | Product List | Glossary On
Versions: 1 2 3 4 5 6 7 8 9 10 11 12 13 14 15 16 17 18 19 20 21 22 23 24 25 26 27 28 29 30 31 32 33 34 35 36 37 38 39 40 41 42 43 44 45 46 47 48 49 50
391
ASUS44 KLIX 272201
RWRLA
LOUISIANA WEATHER ROUNDUP
NATIONAL WEATHER SERVICE NEW ORLEANS LA
400 PM CST FRI FEB 27 2015

NOTE: "FAIR" INDICATES FEW OR NO CLOUDS BELOW 12,000 FEET WITH NO
      SIGNIFICANT WEATHER AND/OR OBSTRUCTIONS TO VISIBILITY.
      SKY/WX - SKY CONDITION AND SIGNIFICANT WEATHER.
      TMP - AIR TEMPERATURE.    DP   - DEWPOINT TEMPERATURE.
      RH  - RELATIVE HUMIDITY.  PRES - PRESSURE.
      HX  - HEAT INDEX.         WCI  - WIND CHILL INDEX.

*  THESE STATIONS ARE NOT NWS OR FAA STATIONS AND ARE NOT UNDER
   NWS QUALITY CONTROL.

LAZ040-048-061>063-065-066-069-272300-
SOUTHEAST LOUISIANA

CITY           SKY/WX    TMP DP  RH WIND       PRES   REMARKS
N.O. AUDUBON     N/A     52  37  55 MISG        N/A
N.O. INTL ARPT MOSUNNY   51  34  52 N10       30.32S
N.O. LAKEFRONT SUNNY     53  35  50 NW13      30.32S
SLIDELL        SUNNY     54  32  43 N10       30.31S
BATON ROUGE    SUNNY     52  32  46 NE9       30.32F
BOOTHVILLE     PTSUNNY   50  39  66 NE10      30.29S
BELLE CHASSE   MOSUNNY   54  28  36 E14       30.30S
BOGALUSA*        N/A     50  32  50 NE6       30.36R
GALLIANO*      CLEAR     54  35  47 N8        30.30S
NEW ROADS*     FAIR      52  32  46 NW3       30.33S
GONZALES*      NOT AVBL
HAMMOND*       NOT AVBL
HOUMA*         NOT AVBL
PORT FOURCHON* NOT AVBL

$$

LAZ041-044-053-054-272300-
SOUTHWEST LOUISIANA

CITY           SKY/WX    TMP DP  RH WIND       PRES   REMARKS
LAKE CHARLES   SUNNY     50  33  52 E9        30.32F
LAFAYETTE      SUNNY     51  33  50 NE12      30.31F
PATTERSON      SUNNY     54  34  47 E13       30.30F
SALT POINT       N/A     54  35  48 VRB5      30.27F
NEW IBERIA     SUNNY     54  35  48 N14       30.31F
CHENAULT AIRPK NOT AVBL

$$

LAZ027-028-272300-
CENTRAL LOUISIANA

CITY           SKY/WX    TMP DP  RH WIND       PRES   REMARKS
FORT POLK      MOSUNNY   47  28  46 N8        30.32S
ALEXANDRIA INT MOSUNNY   46  26  45 NE10G17   30.36S
ALEXANDRIA     MOSUNNY   47  27  45 VRB5      30.37F

$$

LAZ001-002-272300-
NORTHWEST LOUISIANA

CITY           SKY/WX    TMP DP  RH WIND       PRES   REMARKS
SHREVEPORT     CLOUDY    34  20  56 NE13      30.43S WCI  25
BARKSDALE AFB  NOT AVBL
DTN SHREVEPORT CLOUDY    33  18  53 NE6G17    30.45R WCI  28

$$

LAZ014-016-272300-
NORTHEAST LOUISIANA

CITY           SKY/WX    TMP DP  RH WIND       PRES   REMARKS
MONROE         CLOUDY    36  23  59 N15       30.46F WCI  27
TALLULAH       SUNNY     40  26  57 NW13      30.44R WCI  32

$$




USA.gov is the U.S. government's official web portal to all federal, state and local government web resources and services.